This demonstration page uses our WeatherBlox Daily Observations layout. Learn more.

Left ArrowRight Arrow

40.92945, -100.16068

Hourly Observations for April 13, 2020

Temp ( °F °C ) Dew Point ( °F °C ) Humidity (%) Winds ( mph kmh ) Pressure ( in mb ) Visibility ( mi km ) Precip ( " mm )
12:15 am 00:15 Clear 21 -6.1 14 -9.8 75 75 WNW 10 17 30.33 1027 10 16 0.00 0.00
12:35 am 00:35 Clear 20 -6.5 15 -9.7 78 78 WNW 10 17 30.34 1028 10 16 0.00 0.00
12:55 am 00:55 Clear 20 -6.9 14 -10 79 79 WNW 12 19 30.36 1028 10 16 0.00 0.00
1:15 am 01:15 Clear 19 -7.1 14 -10 80 80 WNW 13 20 30.37 1028 10 16 0.00 0.00
1:35 am 01:35 Clear 20 -6.6 14 -10 77 77 WNW 15 24 30.37 1028 10 16 0.00 0.00
1:55 am 01:55 Clear 20 -6.5 14 -10 76 76 WNW 16 26 30.36 1028 10 16 0.00 0.00
2:15 am 02:15 Clear 20 -6.5 14 -10.1 76 76 WNW 15 24 30.37 1029 10 16 0.00 0.00
2:35 am 02:35 Clear 20 -6.5 14 -10 76 76 WNW 15 24 30.36 1028 10 16 0.00 0.00
2:55 am 02:55 Clear 20 -6.6 14 -10.1 76 76 WNW 14 22 30.37 1028 10 16 0.00 0.00
3:15 am 03:15 Clear 20 -6.7 14 -10.2 76 76 WNW 15 24 30.37 1028 10 16 0.00 0.00
3:35 am 03:35 Clear 20 -6.6 14 -10.1 76 76 NW 15 24 30.37 1028 10 16 0.00 0.00
3:55 am 03:55 Clear 20 -6.6 13 -10.4 75 75 NW 15 24 30.37 1028 10 16 0.00 0.00
4:15 am 04:15 Clear 20 -6.8 13 -10.3 76 76 NW 16 26 30.37 1028 10 16 0.00 0.00
4:35 am 04:35 Clear 20 -6.7 13 -10.3 76 76 NW 16 26 30.38 1029 10 16 0.00 0.00
4:55 am 04:55 Clear 20 -6.7 13 -10.3 76 76 NW 15 24 30.38 1029 10 16 0.00 0.00
5:15 am 05:15 Clear 19 -7.2 14 -10.2 79 79 NW 10 17 30.38 1029 10 16 0.00 0.00
5:35 am 05:35 Clear 19 -7.1 14 -10 80 80 NW 13 20 30.38 1029 10 16 0.00 0.00
5:55 am 05:55 Clear 19 -7.1 14 -10 80 80 WNW 14 22 30.38 1029 10 16 0.00 0.00
6:15 am 06:15 Clear 19 -7 14 -10 79 79 WNW 14 22 30.39 1029 10 16 0.00 0.00
6:35 am 06:35 Partly Cloudy 19 -7.4 14 -9.9 83 83 NW 12 19 30.39 1029 10 16 0.00 0.00
6:55 am 06:55 Partly Cloudy 18 -7.6 14 -10.1 82 82 NNW 12 19 30.40 1029 10 16 0.00 0.00
7:15 am 07:15 Sunny 18 -8 14 -10.1 85 85 NW 10 17 30.40 1029 10 16 0.00 0.00
7:35 am 07:35 Sunny 19 -7.4 14 -9.9 83 83 NNW 9 15 30.38 1029 10 16 0.00 0.00
7:55 am 07:55 Sunny 20 -6.6 15 -9.5 80 80 NW 7 11 30.39 1029 10 16 0.00 0.00
8:15 am 08:15 Sunny 23 -5.2 16 -9 75 75 WNW 7 11 30.38 1029 10 16 0.00 0.00
8:35 am 08:35 Sunny 24 -4.3 16 -9 70 70 WNW 9 15 30.38 1029 10 16 0.00 0.00
8:55 am 08:55 Sunny 26 -3.5 16 -8.8 67 67 WNW 10 17 30.37 1029 10 16 0.00 0.00
9:15 am 09:15 Sunny 28 -2.4 17 -8.6 63 63 WNW 18 30 30.36 1028 10 16 0.00 0.00
9:35 am 09:35 Sunny 28 -2 16 -8.7 61 61 WNW 17 28 30.36 1028 10 16 0.00 0.00
9:55 am 09:55 Partly Cloudy 30 -1.2 16 -9 56 56 NW 15 24 30.35 1028 10 16 0.00 0.00
10:15 am 10:15 Partly Cloudy 31 -0.4 11 -11.9 42 42 NW 20 31 30.34 1027 10 16 0.00 0.00
10:35 am 10:35 Partly Cloudy 31 -0.3 8 -13.1 38 38 NNW 20 31 30.35 1028 10 16 0.00 0.00
10:55 am 10:55 Sunny 32 -0.1 8 -13.5 36 36 N 17 28 30.35 1028 10 16 0.00 0.00
11:15 am 11:15 Partly Cloudy 32 0 5 -15 32 32 NNW 16 26 30.35 1028 10 16 0.00 0.00
11:35 am 11:35 Mostly Cloudy 33 0.4 4 -15.7 29 29 NNW 14 22 30.35 1028 10 16 0.00 0.00
11:55 am 11:55 Cloudy 34 1.1 4 -15.4 28 28 NW 18 30 30.35 1028 10 16 0.00 0.00
12:15 pm 12:15 Partly Cloudy 34 0.9 3 -15.9 28 28 NW 20 31 30.34 1027 10 16 0.00 0.00
12:35 pm 12:35 Sunny 35 1.5 4 -15.5 27 27 N 18 30 30.32 1027 10 16 0.00 0.00
12:55 pm 12:55 Sunny 35 1.6 5 -15.1 28 28 N 16 26 30.32 1027 10 16 0.00 0.00
1:15 pm 13:15 Sunny 36 2.3 6 -14.2 29 29 NW 17 28 30.31 1027 10 16 0.00 0.00
1:35 pm 13:35 Sunny 36 2.2 6 -14.2 29 29 NW 18 30 30.31 1026 10 16 0.00 0.00
1:55 pm 13:55 Sunny 36 2.3 6 -14.3 28 28 WNW 16 26 30.29 1026 10 16 0.00 0.00
2:15 pm 14:15 Sunny 37 2.5 6 -14.3 28 28 NW 17 28 30.29 1026 10 16 0.00 0.00
2:35 pm 14:35 Sunny 37 2.9 6 -14.7 26 26 WNW 20 31 30.29 1026 10 16 0.00 0.00
2:55 pm 14:55 Sunny 37 2.8 7 -13.7 29 29 NNW 20 31 30.28 1025 10 16 0.00 0.00
3:15 pm 15:15 Sunny 37 3 8 -13.6 29 29 NNW 16 26 30.28 1025 10 16 0.00 0.00
3:35 pm 15:35 Partly Cloudy 37 2.9 9 -12.9 31 31 NW 12 19 30.28 1025 10 16 0.00 0.00
3:55 pm 15:55 Partly Cloudy 37 2.5 6 -14.3 28 28 NNW 15 24 30.27 1025 10 16 0.00 0.00
4:15 pm 16:15 Partly Cloudy 38 3.4 8 -13.1 29 29 NW 16 26 30.26 1025 10 16 0.00 0.00
4:35 pm 16:35 Mostly Cloudy 37 2.7 7 -14.1 28 28 N 10 17 30.26 1025 10 16 0.00 0.00
4:55 pm 16:55 Partly Cloudy 38 3.1 7 -13.9 28 28 NW 14 22 30.26 1025 10 16 0.00 0.00
5:15 pm 17:15 Partly Cloudy 37 2.7 6 -14.4 27 27 NNW 15 24 30.26 1025 10 16 0.00 0.00
5:35 pm 17:35 Mostly Cloudy 38 3.3 7 -14 27 27 NW 22 35 30.25 1025 10 16 0.00 0.00
5:55 pm 17:55 Partly Cloudy 36 2.1 8 -13.4 31 31 NNW 16 26 30.27 1025 10 16 0.00 0.00
6:15 pm 18:15 Partly Cloudy 38 3.1 7 -14 28 28 NW 13 20 30.27 1025 10 16 0.00 0.00
6:35 pm 18:35 Mostly Cloudy 37 2.8 7 -13.7 29 29 NNW 12 19 30.27 1025 10 16 0.00 0.00
6:55 pm 18:55 Mostly Cloudy 37 2.5 8 -13.4 30 30 WNW 9 15 30.27 1025 10 16 0.00 0.00
7:15 pm 19:15 Partly Cloudy 36 2.1 8 -13.2 32 32 NW 13 20 30.28 1025 10 16 0.00 0.00
7:35 pm 19:35 Sunny 35 1.4 9 -13 34 34 NW 10 17 30.29 1026 10 16 0.00 0.00
7:55 pm 19:55 Sunny 33 0.6 9 -13 36 36 NW 8 13 30.30 1026 10 16 0.00 0.00
8:15 pm 20:15 Sunny 32 0 6 -14.4 33 33 NW 10 17 30.31 1026 10 16 0.00 0.00
8:35 pm 20:35 Clear 30 -1.2 6 -14.5 36 36 NNW 8 13 30.34 1027 10 16 0.00 0.00
8:55 pm 20:55 Clear 28 -2 6 -14.5 38 38 NW 10 17 30.36 1028 10 16 0.00 0.00
9:15 pm 21:15 Clear 26 -3.3 7 -13.8 44 44 NW 9 15 30.38 1029 10 16 0.00 0.00
9:35 pm 21:35 Clear 24 -4.5 8 -13.6 49 49 NW 8 13 30.40 1030 10 16 0.00 0.00
9:55 pm 21:55 Clear 23 -4.9 8 -13.2 53 53 NW 8 13 30.42 1030 10 16 0.00 0.00
10:15 pm 22:15 Clear 23 -4.9 8 -13.1 53 53 WNW 8 13 30.42 1030 10 16 0.00 0.00
10:35 pm 22:35 Clear 23 -4.8 9 -12.6 55 55 WNW 8 13 30.43 1030 10 16 0.00 0.00
10:55 pm 22:55 Clear 23 -5 9 -12.9 54 54 WNW 9 15 30.43 1030 10 16 0.00 0.00
11:15 pm 23:15 Clear 22 -5.4 9 -12.7 57 57 WNW 8 13 30.43 1031 10 16 0.00 0.00
11:35 pm 23:35 Clear 23 -5.2 9 -12.6 56 56 WNW 9 15 30.43 1031 10 16 0.00 0.00
11:55 pm 23:55 Mostly Cloudy 24 -4.7 11 -11.5 59 59 WNW 8 13 30.44 1031 10 16 0.00 0.00

Powered by AerisWeather